Location: Peterborough
(44.3091°N, 78.3197°W)
Time: 09:10:30
(UTC-04:00)

A-11 Canister half - Pass Details

Date: 13 September 2024
Orbit: 1515 x 1684 km, 47.2° (Epoch: 02 October)

Event Time Altitude Azimuth Distance (km) Brightness Sun altitude
Rises 01:38:31 0° 291° (WNW) 4,663 11.7 -41.6°
Reaches altitude 10° 01:41:33 10° 290° (WNW) 3,678 11.0 -41.6°
Enters shadow 01:43:45 20° 289° (WNW) 2,983 10.5 -41.5°
